Weather History for Haines, AK

Change the Weather History Date:

Monday, October 10, 2011

  Actual Average Record
Temperature  
Mean Temperature 46 °F -  
Max Temperature 48 °F 46 °F 57 °F (1979)
Min Temperature 43 °F 38 °F 28 °F (2002)
Degree Days  
Heating Degree Days 20    
Moisture  
Dew Point 40 °F    
Average Humidity 82    
Maximum Humidity 97    
Minimum Humidity 69    
Precipitation  
Precipitation 0.03 in - - ()
Sea Level Pressure  
Sea Level Pressure 29.51 in    
Wind  
Wind Speed 8 mph (NW)    
Max Wind Speed 15 mph    
Max Gust Speed 21 mph    
Visibility 10 miles    
Events Rain    
Averages and records for this station are not official NWS values.
T = Trace of Precipitation, MM = Missing Value Source: NWS Daily Summary

Daily Weather History Graph

Daily Weather History Graph

Search for Another Location

Airport:

Trip Planner

Search our weather history database for the weather conditions in past years. The results will help you decide how hot, cold, wet, or windy it might be!

Date:

Astronomy

Oct. 10, 2011 Rise Set
Actual Time 7:27 AM AKDT 6:09 PM AKDT
Civil Twilight 6:46 AM AKDT 6:49 PM AKDT
Nautical Twilight 5:59 AM AKDT 7:36 PM AKDT
Astronomical Twilight 5:11 AM AKDT 8:24 PM AKDT
Moon 5:14 PM AKDT (10/10) 6:12 AM AKDT (10/10)
Length of Visible Light 12h 02m
Length of Day
10h 41m
Waxing Gibbous, 99% of the Moon is Illuminated
Oct 10
Waxing Gibbous
Oct 11
Full
Oct 19
Last Quarter
Oct 26
New
Nov 2
First Quarter

Hourly Weather History & Observations

Time (AKDT) Temp. Windchill Dew Point Humidity Pressure Visibility Wind Dir Wind Speed Gust Speed Precip Events Conditions
12:54 AM 45.0 °F 41.2 °F 41.0 °F 86% 29.66 in 10.0 mi East 6.9 mph - 0.02 in   Mostly Cloudy
1:06 AM 44.6 °F 40.2 °F 42.8 °F 93% 29.65 in 10.0 mi East 8.1 mph - N/A   Mostly Cloudy
1:51 AM 44.6 °F 42.2 °F 41.0 °F 87% 29.64 in 10.0 mi East 4.6 mph - 0.00 in Rain Light Rain
1:54 AM 44.1 °F 41.5 °F 41.0 °F 89% 29.65 in 10.0 mi East 4.6 mph - 0.00 in Rain Light Rain
2:45 AM 44.6 °F 43.1 °F 41.0 °F 87% 29.63 in 10.0 mi SE 3.5 mph - 0.00 in   Overcast
2:54 AM 44.1 °F - 42.1 °F 93% 29.64 in 10.0 mi Calm Calm - 0.00 in   Overcast
3:54 AM 43.0 °F - 42.1 °F 97% 29.62 in 10.0 mi Calm Calm - N/A   Overcast
4:54 AM 43.0 °F 38.8 °F 41.0 °F 93% 29.60 in 10.0 mi WNW 6.9 mph - N/A   Overcast
5:54 AM 43.0 °F 38.8 °F 41.0 °F 93% 29.59 in 10.0 mi NW 6.9 mph - N/A   Overcast
6:54 AM 43.0 °F 37.2 °F 41.0 °F 93% 29.58 in 10.0 mi WNW 10.4 mph - N/A   Overcast
7:54 AM 44.1 °F 38.6 °F 39.9 °F 85% 29.57 in 10.0 mi NW 10.4 mph - N/A   Mostly Cloudy
8:54 AM 43.0 °F 36.4 °F 41.0 °F 93% 29.55 in 10.0 mi NW 12.7 mph - 0.01 in   Scattered Clouds
9:54 AM 44.1 °F 37.4 °F 39.9 °F 85% 29.54 in 10.0 mi NW 13.8 mph 20.7 mph N/A   Clear
10:54 AM 46.0 °F 40.6 °F 41.0 °F 83% 29.53 in 10.0 mi NW 11.5 mph 19.6 mph N/A   Partly Cloudy
11:54 AM 46.9 °F - 39.9 °F 77% 29.50 in 10.0 mi WNW 13.8 mph - N/A   Clear
12:54 PM 48.0 °F - 39.0 °F 71% 29.49 in 10.0 mi WNW 15.0 mph - N/A   Clear
1:54 PM 48.0 °F - 39.0 °F 71% 29.47 in 10.0 mi NW 10.4 mph - N/A   Clear
2:54 PM 48.9 °F - 39.0 °F 69% 29.44 in 10.0 mi WNW 10.4 mph - N/A   Clear
3:54 PM 48.9 °F - 39.0 °F 69% 29.42 in 10.0 mi WNW 9.2 mph - N/A   Clear
4:54 PM 48.0 °F - 39.0 °F 71% 29.40 in 10.0 mi NW 6.9 mph - N/A   Partly Cloudy
5:54 PM 46.9 °F - 39.0 °F 74% 29.39 in 10.0 mi NW 8.1 mph - N/A   Mostly Cloudy
6:54 PM 46.0 °F 41.4 °F 39.0 °F 76% 29.38 in 10.0 mi NW 9.2 mph - N/A   Partly Cloudy
7:54 PM 46.0 °F 41.4 °F 37.9 °F 73% 29.37 in 10.0 mi WNW 9.2 mph - N/A   Clear
8:54 PM 45.0 °F 39.3 °F 39.0 °F 80% 29.37 in 10.0 mi WNW 11.5 mph - N/A   Clear
9:54 PM 45.0 °F 39.7 °F 39.0 °F 80% 29.36 in 10.0 mi WNW 10.4 mph - N/A   Overcast
10:54 PM 46.0 °F 40.6 °F 37.9 °F 73% 29.36 in 10.0 mi WNW 11.5 mph - N/A   Overcast
11:54 PM 44.1 °F 38.1 °F 39.0 °F 82% 29.36 in 10.0 mi WNW 11.5 mph - N/A   Mostly Cloudy